Hourly Data Report for September 08, 2018

ASHCROFT
BRITISH COLUMBIA
Current Station Operator: ECCC - MSC

50°42'30.005" N
121°16'53.001" W
327.00 m
1160515
71681
VAS

Download Data

Hourly Data (September 2018)
Hourly Data Report for September 8, 2018
TIME
LST
Temp Definition
°C
Dew Point Definition
°C
Rel Hum Definition
%
Precip. Amount Definition
mm

Wind Dir Definition
10's deg

Wind Spd Definition
km/h
Visibility Definition
km
Stn Press Definition
kPa
Hmdx Definition


Wind Chill Definition


Weather Definition


00:00 17.5 6.8 49 0.0 20 15   97.46     LegendNANA
01:00 16.7 7.2 53 0.0 20 8   97.50     LegendNANA
02:00 15.8 7.2 57 0.0 16 5   97.52     LegendNANA
03:00 15.4 7.1 58 0.0 17 7   97.56     LegendNANA
04:00 14.7 7.1 60 0.0 24 3   97.58     LegendNANA
05:00 13.3 7.8 69 0.0 36 4   97.65     LegendNANA
06:00 12.7 7.4 70 0.0 0 1   97.69     LegendNANA
07:00 13.6 7.7 68 0.0 2 2   97.70     LegendNANA
08:00 15.7 8.2 61 0.0 0 1   97.66     LegendNANA
09:00 17.8 7.5 51 0.0 11 2   97.65     LegendNANA
10:00 19.2 7.5 47 0.0 2 8   97.61     LegendNANA
11:00 21.2 6.5 39 0.0 8 4   97.55     LegendNANA
12:00 22.9 4.9 31 0.0 21 5   97.49     LegendNANA
13:00 22.9 4.7 31 0.0 22 13   97.44     LegendNANA
14:00 24.4 4.3 27 0.0 24 15   97.38     LegendNANA
15:00 23.3 3.8 28 0.0 20 15   97.35     LegendNANA
16:00 23.7 4.2 28 0.0 20 20   97.33     LegendNANA
17:00 22.4 4.1 30 0.0 20 23   97.36     LegendNANA
18:00 20.8 4.2 34 0.0 20 20   97.39     LegendNANA
19:00 19.7 3.6 34 0.0 20 15   97.39     LegendNANA
20:00 19.3 4.0 36 0.0 21 17   97.43     LegendNANA
21:00 19.0 4.4 38 0.0 20 15   97.44     LegendNANA
22:00 18.4 4.8 41 0.0 21 16   97.46     LegendNANA
23:00 17.6 5.0 43 0.0 19 10   97.48     LegendNANA

Notes on Data Quality.

Legend

  • E = Estimated
  • M = Missing
  • NA = Not Available*
  • [empty] = Indicates an unobserved value
Date modified: